TimeMDT,TemperatureF,Dew PointF,Humidity,Sea Level PressureIn,VisibilityMPH,Wind Direction,Wind SpeedMPH,Gust SpeedMPH,PrecipitationIn,Events,Conditions,WindDirDegrees,DateUTC
12:53 AM,36.0,27.0,70,30.23,10.0,Calm,Calm,-,N/A,,Clear,0,2012-10-29 06:53:00
1:53 AM,36.0,27.0,70,30.22,10.0,Calm,Calm,-,N/A,,Clear,0,2012-10-29 07:53:00
2:53 AM,33.1,25.0,72,30.23,10.0,SW,3.5,-,N/A,,Clear,220,2012-10-29 08:53:00
3:53 AM,32.0,26.1,79,30.23,10.0,East,3.5,-,N/A,,Clear,100,2012-10-29 09:53:00
4:53 AM,30.0,25.0,82,30.25,10.0,Calm,Calm,-,N/A,,Clear,0,2012-10-29 10:53:00
5:53 AM,30.9,25.0,79,30.25,10.0,SSW,3.5,-,N/A,,Clear,200,2012-10-29 11:53:00
6:53 AM,28.9,24.1,82,30.28,10.0,Calm,Calm,-,N/A,,Clear,0,2012-10-29 12:53:00
7:53 AM,28.9,24.1,82,30.31,10.0,Calm,Calm,-,N/A,,Clear,0,2012-10-29 13:53:00
8:53 AM,34.0,26.1,73,30.32,10.0,Calm,Calm,-,N/A,,Clear,0,2012-10-29 14:53:00
9:53 AM,41.0,28.0,60,30.30,10.0,Calm,Calm,-,N/A,,Clear,0,2012-10-29 15:53:00
10:53 AM,46.9,28.9,50,30.28,10.0,Calm,Calm,-,N/A,,Clear,0,2012-10-29 16:53:00
11:53 AM,53.1,28.9,40,30.25,10.0,Calm,Calm,-,N/A,,Clear,0,2012-10-29 17:53:00
12:53 PM,55.9,28.9,36,30.21,10.0,Calm,Calm,-,N/A,,Clear,0,2012-10-29 18:53:00
1:53 PM,60.1,27.0,28,30.17,10.0,West,4.6,-,N/A,,Clear,280,2012-10-29 19:53:00
2:53 PM,64.0,27.0,25,30.13,10.0,WNW,9.2,-,N/A,,Clear,290,2012-10-29 20:53:00
3:53 PM,64.9,26.1,23,30.11,10.0,West,15.0,-,N/A,,Clear,260,2012-10-29 21:53:00
4:53 PM,64.9,26.1,23,30.12,10.0,West,10.4,-,N/A,,Clear,270,2012-10-29 22:53:00
5:53 PM,62.1,25.0,24,30.13,10.0,WSW,9.2,-,N/A,,Clear,250,2012-10-29 23:53:00
6:53 PM,57.9,25.0,28,30.17,10.0,WSW,9.2,-,N/A,,Clear,250,2012-10-30 00:53:00
7:53 PM,50.0,28.0,43,30.21,10.0,East,5.8,-,N/A,,Clear,100,2012-10-30 01:53:00
8:53 PM,52.0,27.0,38,30.21,10.0,ESE,6.9,-,N/A,,Clear,120,2012-10-30 02:53:00
9:53 PM,45.0,27.0,49,30.22,10.0,SSE,5.8,-,N/A,,Clear,150,2012-10-30 03:53:00
10:53 PM,41.0,27.0,57,30.22,10.0,Calm,Calm,-,N/A,,Clear,0,2012-10-30 04:53:00
11:53 PM,37.9,26.1,62,30.22,10.0,SSW,4.6,-,N/A,,Clear,210,2012-10-30 05:53:00